Flight Briefing for CPX718

Departure Arrival
Juan Santamar?a International Airport (MROC)
Click to view FAA NOTAMS
Miami International Airport (KMIA)
Click to view FAA NOTAMS
Departure Time Arrival Time
N/A N/A
Aircraft Distance
B767-300BDSF 976nm
Departure METAR Arrival METAR
MROC 250200Z 23004KT 9999 -DZ FEW005 BKN130 21/21 A3002 NOSIG KMIA 250153Z 05009KT 10SM FEW040 26/18 A3008 RMK AO2 SLP186 T02610183
Suggested Route
UCA UA301 URSUS FLIPR6


View recent IFR Routes data
Notes



Charts and Procedures

Charts for MROC
No chart available
Charts for KMIA
No chart available

Windy.com Weather Map